CW1575 Weather Reports


Display with metric or nautical units.
time (UTC)temp
F
wind
direction
speed
MPH
gust
MPH
rain 1hr
in
rain 24hr
in
rain mn
in
humidity
%
barometer
mb
20260508010005 65 0 0.0 1.0 0.00 0.39 0.37 33 1007.8
20260508005504 65 0 0.0 1.0 0.00 0.39 0.37 32 1007.8
20260508005005 65 0 0.0 0.0 0.00 0.40 0.37 32 1007.7
20260508004504 66 0 0.0 0.0 0.00 0.40 0.37 32 1007.7
20260508004005 66 0 0.0 1.0 0.00 0.40 0.37 31 1007.7
20260508003504 66 0 0.0 0.0 0.00 0.40 0.37 31 1007.6
20260508003005 66 0 0.0 0.0 0.00 0.40 0.37 32 1007.6
20260508002504 67 0 0.0 0.0 0.00 0.40 0.37 29 1007.7
20260508002004 67 0 0.0 1.0 0.00 0.40 0.37 29 1007.8
20260508001504 67 0 0.0 1.0 0.00 0.40 0.37 30 1007.9
20260508000004 67 0 1.0 2.0 0.00 0.41 0.37 29 1008.0
20260507235504 67 0 0.0 2.0 0.00 0.41 0.37 29 1008.0
20260507235005 68 0 0.0 3.0 0.00 0.41 0.37 28 1008.0
20260507234504 68 0 1.0 2.0 0.00 0.42 0.37 28 1008.0
20260507234005 68 0 0.0 2.0 0.00 0.42 0.37 29 1008.1
20260507233504 68 0 0.0 2.0 0.00 0.42 0.37 29 1008.1
20260507233004 68 0 0.0 2.0 0.00 0.42 0.37 28 1008.2
20260507232504 69 0 0.0 2.0 0.00 0.42 0.37 29 1008.3
20260507232004 69 0 1.0 2.0 0.00 0.42 0.37 28 1008.4
20260507231504 69 0 0.0 3.0 0.00 0.42 0.37 27 1008.5
20260507231004 70 0 1.0 3.0 0.00 0.43 0.37 27 1008.7
20260507230504 70 0 0.0 3.0 0.00 0.43 0.37 27 1008.8
20260507230005 70 0 2.0 3.0 0.00 0.43 0.37 26 1009.0
20260507225504 71 0 2.0 5.0 0.00 0.43 0.37 26 1009.0
20260507225004 71 0 1.0 3.0 0.00 0.44 0.37 28 1008.9
20260507224504 71 0 4.0 8.0 0.00 0.44 0.37 28 1008.9
20260507224005 71 0 3.0 6.0 0.00 0.44 0.37 27 1008.9
20260507223504 71 0 2.0 6.0 0.00 0.44 0.37 26 1009.0
20260507223004 71 0 3.0 6.0 0.00 0.44 0.37 26 1008.9
20260507222504 71 0 4.0 12.0 0.00 0.44 0.37 28 1009.1
20260507221503 71 0 1.0 3.0 0.00 0.45 0.37 26 1009.2
20260507221004 71 0 1.0 8.0 0.00 0.45 0.37 28 1009.4
20260507220004 70 0 5.0 12.0 0.00 0.46 0.37 28 1009.7
20260507215504 70 0 5.0 12.0 0.00 0.46 0.37 27 1009.9
20260507215004 70 0 2.0 6.0 0.00 0.46 0.37 28 1010.0
20260507214504 69 0 3.0 8.0 0.00 0.46 0.37 28 1010.2
20260507214004 69 0 6.0 13.0 0.00 0.46 0.37 29 1010.2
20260507213504 68 0 3.0 10.0 0.00 0.47 0.37 30 1010.4
20260507213004 67 0 3.0 8.0 0.00 0.47 0.37 31 1010.4
20260507212504 66 0 5.0 9.0 0.00 0.47 0.37 30 1010.6
20260507212004 66 0 3.0 12.0 0.00 0.47 0.37 31 1010.7
20260507211004 65 0 3.0 12.0 0.00 0.47 0.37 32 1011.0
20260507210504 65 0 1.0 3.0 0.00 0.47 0.37 33 1011.2
20260507210005 65 0 2.0 5.0 0.00 0.47 0.37 32 1011.3
20260507205504 65 0 3.0 5.0 0.00 0.47 0.37 31 1011.4
20260507205004 65 0 2.0 12.0 0.00 0.47 0.37 31 1011.4
20260507204504 65 0 3.0 12.0 0.00 0.47 0.37 31 1011.5
20260507204004 66 0 2.0 9.0 0.00 0.47 0.37 31 1011.6
20260507203504 66 0 1.0 6.0 0.00 0.48 0.37 31 1011.8
20260507203004 66 0 2.0 9.0 0.00 0.48 0.37 30 1011.8
20260507202504 67 0 1.0 5.0 0.00 0.48 0.37 31 1011.8
20260507202005 67 0 2.0 3.0 0.00 0.48 0.37 31 1011.8
20260507201504 67 0 1.0 5.0 0.00 0.48 0.37 29 1011.9
20260507201004 68 0 2.0 8.0 0.00 0.48 0.37 31 1012.0
20260507200504 68 0 2.0 10.0 0.00 0.48 0.37 29 1012.3
20260507200004 68 0 2.0 6.0 0.00 0.48 0.37 32 1012.2
20260507195504 68 0 5.0 10.0 0.00 0.48 0.37 33 1012.3
20260507195004 67 0 4.0 12.0 0.00 0.48 0.37 32 1012.4
20260507194504 67 0 2.0 8.0 0.00 0.48 0.37 35 1012.6
20260507194004 66 0 3.0 10.0 0.00 0.48 0.37 35 1012.7
20260507193504 66 0 3.0 12.0 0.00 0.48 0.37 32 1012.9
20260507193004 66 0 3.0 10.0 0.00 0.48 0.37 33 1012.9
20260507192504 66 0 6.0 12.0 0.00 0.48 0.37 36 1013.2
20260507192004 65 0 4.0 9.0 0.00 0.48 0.37 33 1013.2
20260507191504 65 0 2.0 9.0 0.00 0.48 0.37 35 1013.4
20260507191004 65 0 1.0 3.0 0.00 0.48 0.37 39 1013.5
20260507190504 65 0 1.0 3.0 0.00 0.48 0.37 36 1013.7
20260507190005 64 0 1.0 3.0 0.00 0.48 0.37 38 1013.7
20260507185504 64 0 2.0 3.0 0.00 0.48 0.37 37 1013.7
20260507184504 64 0 2.0 6.0 0.00 0.48 0.37 38 1013.8
20260507184004 64 0 2.0 5.0 0.00 0.48 0.37 37 1013.7
20260507183004 64 0 3.0 8.0 0.00 0.48 0.37 38 1013.9
20260507182504 64 0 2.0 8.0 0.00 0.48 0.37 39 1013.9
20260507181504 64 0 3.0 6.0 0.00 0.48 0.37 40 1014.0
20260507181003 64 0 2.0 5.0 0.00 0.49 0.37 38 1014.2
20260507180504 64 0 2.0 3.0 0.00 0.49 0.37 37 1014.4
20260507180004 64 0 1.0 3.0 0.00 0.49 0.37 42 1014.5
20260507175004 64 0 1.0 3.0 0.00 0.49 0.37 39 1014.5
20260507174504 64 0 0.0 2.0 0.00 0.49 0.37 37 1014.6
20260507174004 64 0 2.0 3.0 0.00 0.49 0.37 38 1014.7
20260507173504 63 0 1.0 3.0 0.00 0.49 0.37 45 1014.9
20260507172504 62 0 0.0 5.0 0.00 0.49 0.37 41 1015.0
20260507172004 62 0 2.0 6.0 0.00 0.49 0.37 45 1015.0
20260507171504 61 0 2.0 3.0 0.00 0.49 0.37 44 1015.0
20260507171004 61 0 1.0 5.0 0.00 0.49 0.37 43 1015.1
20260507170504 61 0 3.0 3.0 0.00 0.49 0.37 41 1015.2
20260507170004 61 0 2.0 5.0 0.00 0.49 0.37 44 1015.2
20260507165504 61 0 2.0 3.0 0.00 0.49 0.37 45 1015.3
20260507165004 61 0 1.0 3.0 0.00 0.49 0.37 44 1015.3
20260507164504 61 0 1.0 3.0 0.00 0.49 0.37 43 1015.4
20260507164003 60 0 1.0 3.0 0.00 0.49 0.37 43 1015.5
20260507163504 60 0 1.0 5.0 0.00 0.49 0.37 43 1015.5
20260507163004 60 0 3.0 6.0 0.00 0.49 0.37 43 1015.6
20260507162504 60 0 3.0 6.0 0.01 0.49 0.37 44 1015.7
20260507162004 59 0 1.0 6.0 0.01 0.49 0.37 44 1015.8
20260507161504 59 0 0.0 2.0 0.02 0.49 0.37 45 1015.9
20260507161004 59 0 1.0 3.0 0.02 0.49 0.37 46 1016.0
20260507160503 59 0 1.0 5.0 0.03 0.49 0.37 46 1016.3
20260507160004 58 0 2.0 3.0 0.03 0.49 0.37 45 1016.4
20260507155504 58 0 1.0 5.0 0.04 0.49 0.37 46 1016.5
20260507155004 57 0 1.0 3.0 0.04 0.49 0.37 47 1016.6
20260507154505 57 0 0.0 3.0 0.05 0.49 0.37 50 1016.7
20260507154004 56 0 1.0 6.0 0.05 0.49 0.37 51 1016.8
20260507153504 55 0 0.0 5.0 0.06 0.49 0.37 50 1016.9
20260507153004 55 0 1.0 8.0 0.07 0.49 0.37 49 1016.9
20260507152504 54 0 2.0 5.0 0.07 0.48 0.36 51 1016.9
20260507152003 54 0 2.0 5.0 0.07 0.48 0.36 52 1016.9
20260507151504 53 0 2.0 5.0 0.07 0.47 0.35 52 1016.9
20260507151003 53 0 2.0 5.0 0.12 0.47 0.35 54 1017.0
20260507150005 51 0 3.0 6.0 0.33 0.46 0.34 54 1017.1
20260507145503 50 0 2.0 3.0 0.32 0.45 0.33 57 1017.2
20260507145004 50 0 1.0 5.0 0.32 0.45 0.33 60 1017.2
20260507144004 47 0 2.0 5.0 0.31 0.44 0.32 65 1017.3
20260507143504 46 0 2.0 3.0 0.30 0.43 0.31 67 1017.3
20260507143004 45 0 3.0 5.0 0.29 0.42 0.30 70 1017.3
20260507142503 44 0 1.0 3.0 0.28 0.41 0.29 74 1017.3
20260507142004 43 0 2.0 3.0 0.28 0.41 0.29 75 1017.3
20260507141504 42 0 1.0 3.0 0.27 0.40 0.28 76 1017.3
20260507141003 41 0 0.0 1.0 0.22 0.35 0.23 74 1017.3
20260507140504 40 0 2.0 5.0 0.00 0.13 0.01 74 1017.3
20260507140005 39 0 1.0 3.0 0.00 0.13 0.01 78 1017.4
20260507135504 38 0 1.0 3.0 0.00 0.13 0.01 79 1017.5
20260507135004 37 0 1.0 3.0 0.00 0.13 0.01 81 1017.5
20260507134504 37 0 0.0 0.0 0.00 0.13 0.01 83 1017.6
20260507134004 36 0 0.0 1.0 0.00 0.13 0.01 84 1017.6
20260507133503 35 0 0.0 3.0 0.00 0.13 0.01 85 1017.6
20260507133003 35 0 0.0 3.0 0.00 0.13 0.01 87 1017.7
20260507132504 34 0 2.0 5.0 0.00 0.13 0.01 89 1017.8
20260507132004 34 0 1.0 2.0 0.00 0.13 0.01 90 1017.7
20260507131504 33 0 0.0 0.0 0.00 0.13 0.01 90 1017.6
20260507131003 33 0 0.0 0.0 0.00 0.13 0.01 90 1017.5
20260507130004 32 0 0.0 2.0 0.00 0.13 0.01 91 1017.6
20260507125504 31 0 1.0 6.0 0.00 0.13 0.01 91 1017.7
20260507125003 30 0 2.0 3.0 0.00 0.13 0.01 91 1017.7
20260507124504 30 0 1.0 5.0 0.00 0.13 0.01 92 1017.6
20260507124004 30 0 0.0 3.0 0.00 0.13 0.01 91 1017.5
20260507123503 30 0 0.0 0.0 0.00 0.13 0.01 91 1017.4
20260507123003 29 0 0.0 0.0 0.00 0.13 0.01 91 1017.3
20260507122503 29 0 0.0 0.0 0.00 0.13 0.01 91 1017.3
20260507122005 29 0 1.0 3.0 0.00 0.13 0.01 91 1017.3
20260507121004 29 0 0.0 0.0 0.00 0.13 0.01 91 1017.4
20260507120503 29 0 0.0 1.0 0.00 0.13 0.01 91 1017.5
20260507120006 29 0 0.0 0.0 0.00 0.13 0.01 91 1017.3
20260507115506 29 0 0.0 2.0 0.00 0.13 0.01 91 1017.3
20260507115005 29 0 0.0 2.0 0.00 0.13 0.01 91 1017.3
20260507113506 29 0 0.0 0.0 0.00 0.14 0.01 91 1017.5
20260507113006 30 0 1.0 2.0 0.00 0.14 0.01 92 1017.5
20260507112506 30 0 2.0 3.0 0.00 0.14 0.01 92 1017.5
20260507112006 30 0 0.0 2.0 0.00 0.14 0.01 92 1017.4
20260507111507 30 0 0.0 1.0 0.00 0.14 0.01 92 1017.3
20260507111006 30 0 0.0 0.0 0.00 0.14 0.01 92 1017.1
20260507110005 29 0 0.0 2.0 0.00 0.14 0.01 92 1017.4
20260507105505 29 0 0.0 1.0 0.00 0.14 0.01 92 1017.4
20260507104506 29 0 1.0 6.0 0.00 0.14 0.01 92 1017.4
20260507104005 29 0 0.0 0.0 0.00 0.14 0.01 92 1017.2
20260507103506 30 0 0.0 0.0 0.00 0.14 0.01 92 1017.3
20260507103006 30 0 0.0 0.0 0.00 0.14 0.01 92 1017.4
20260507102506 30 0 0.0 0.0 0.00 0.14 0.01 92 1017.5
20260507102007 30 0 0.0 3.0 0.00 0.14 0.01 92 1017.4
20260507101507 30 0 0.0 0.0 0.00 0.14 0.01 92 1017.4
20260507101006 30 0 0.0 1.0 0.00 0.14 0.01 92 1017.3
20260507100505 30 0 0.0 2.0 0.00 0.14 0.01 92 1017.4
20260507100006 30 0 1.0 3.0 0.00 0.14 0.01 92 1017.2
20260507095505 30 0 0.0 3.0 0.00 0.14 0.01 92 1017.4
20260507095006 30 0 0.0 0.0 0.00 0.14 0.01 92 1017.3
20260507094506 30 0 0.0 0.0 0.00 0.14 0.01 92 1017.3
20260507093505 30 0 0.0 0.0 0.00 0.14 0.01 92 1017.6
20260507093006 29 0 0.0 2.0 0.00 0.14 0.01 92 1017.6
20260507092506 29 0 1.0 2.0 0.00 0.14 0.01 92 1017.7
20260507092005 29 0 1.0 3.0 0.00 0.14 0.01 92 1017.5
20260507091506 29 0 2.0 3.0 0.00 0.14 0.01 92 1017.6
20260507090507 29 0 0.0 0.0 0.00 0.14 0.01 91 1017.5
20260507090006 29 0 0.0 0.0 0.00 0.14 0.01 91 1017.5
20260507085506 29 0 0.0 0.0 0.00 0.14 0.01 91 1017.4
20260507085006 29 0 0.0 0.0 0.00 0.14 0.01 91 1017.5
20260507084506 29 0 0.0 0.0 0.00 0.14 0.01 92 1017.4
20260507084006 29 0 0.0 0.0 0.00 0.14 0.01 91 1017.4
20260507083505 30 0 0.0 0.0 0.00 0.14 0.01 91 1017.2
20260507083006 30 0 0.0 0.0 0.00 0.14 0.01 91 1017.4
20260507082506 30 0 0.0 0.0 0.00 0.14 0.01 91 1017.5
20260507082006 30 0 0.0 0.0 0.00 0.14 0.01 91 1017.6
20260507081505 30 0 0.0 0.0 0.00 0.14 0.01 91 1017.6
20260507081006 30 0 0.0 0.0 0.00 0.14 0.01 91 1017.7
20260507080005 30 0 0.0 0.0 0.00 0.14 0.01 91 1018.0
20260507075506 30 0 0.0 0.0 0.00 0.14 0.01 91 1018.0
20260507075005 30 0 0.0 0.0 0.00 0.14 0.01 91 1018.0
20260507074505 30 0 0.0 0.0 0.00 0.14 0.01 91 1018.2
20260507074005 30 0 0.0 0.0 0.01 0.14 0.01 91 1018.3
20260507073006 30 0 0.0 0.0 0.01 0.14 0.01 91 1018.3
20260507072505 30 0 0.0 0.0 0.01 0.14 0.01 91 1018.2
20260507072006 30 0 0.0 0.0 0.01 0.14 0.01 91 1018.3
20260507071506 30 0 0.0 0.0 0.01 0.14 0.01 91 1018.4
20260507071006 30 0 0.0 0.0 0.01 0.14 0.01 91 1018.5
20260507070507 30 0 0.0 0.0 0.01 0.14 0.01 91 1018.5
20260507070010 30 0 0.0 0.0 0.01 0.14 0.01 91 1018.5
20260507065506 30 0 0.0 0.0 0.01 0.14 0.01 91 1018.5
20260507064505 30 0 0.0 0.0 0.01 0.14 0.01 90 1018.5
20260507064005 30 0 0.0 2.0 0.00 0.13 0.00 90 1018.4
20260507063505 30 0 1.0 2.0 0.00 0.13 0.00 90 1018.3
20260507063006 30 0 0.0 1.0 0.00 0.13 0.00 90 1018.3
20260507062505 30 0 0.0 0.0 0.00 0.13 0.00 89 1018.3
20260507061505 30 0 0.0 0.0 0.00 0.13 0.00 89 1018.4
20260507061006 30 0 0.0 1.0 0.00 0.13 0.00 89 1018.5
20260507060506 31 0 0.0 0.0 0.00 0.13 0.00 89 1018.6
20260507060006 31 0 0.0 0.0 0.00 0.13 0.00 89 1018.4
20260507055506 31 0 0.0 0.0 0.00 0.13 0.13 89 1018.6
20260507055006 31 0 0.0 0.0 0.00 0.13 0.13 89 1018.6
20260507054506 31 0 0.0 0.0 0.00 0.13 0.13 89 1018.6
20260507054005 31 0 0.0 0.0 0.00 0.13 0.13 89 1018.5
20260507053505 31 0 0.0 0.0 0.00 0.13 0.13 89 1018.8
20260507053006 31 0 0.0 0.0 0.00 0.13 0.13 89 1018.9
20260507052505 31 0 0.0 0.0 0.00 0.13 0.13 89 1018.8
20260507051505 32 0 0.0 0.0 0.00 0.13 0.13 89 1018.9
20260507050506 32 0 0.0 0.0 0.00 0.13 0.13 88 1018.8
20260507050006 32 0 0.0 0.0 0.00 0.13 0.13 88 1018.9
20260507045505 32 0 0.0 1.0 0.00 0.13 0.13 88 1018.9
20260507045006 32 0 0.0 0.0 0.00 0.13 0.13 88 1018.8
20260507044505 32 0 1.0 3.0 0.00 0.13 0.13 88 1018.8
20260507043506 32 0 0.0 3.0 0.00 0.13 0.13 87 1018.8
20260507043006 32 0 0.0 3.0 0.00 0.13 0.13 86 1018.8
20260507042005 32 0 0.0 0.0 0.01 0.13 0.13 86 1018.9
20260507041505 32 0 0.0 0.0 0.01 0.13 0.13 86 1018.9
20260507040505 33 0 0.0 2.0 0.01 0.14 0.13 85 1018.9
20260507040005 33 0 0.0 0.0 0.01 0.14 0.13 85 1018.9
20260507035505 33 0 0.0 0.0 0.01 0.14 0.13 84 1018.9
20260507035005 33 0 0.0 0.0 0.01 0.14 0.13 84 1018.9
20260507034505 33 0 0.0 0.0 0.01 0.14 0.13 84 1018.9
20260507034005 33 0 0.0 0.0 0.01 0.14 0.13 83 1018.9
20260507033505 34 0 0.0 0.0 0.01 0.14 0.13 83 1018.9
20260507033005 34 0 0.0 0.0 0.01 0.14 0.13 83 1018.9
20260507032505 34 0 0.0 0.0 0.01 0.14 0.13 82 1018.8
20260507032006 34 0 0.0 0.0 0.00 0.13 0.12 82 1018.8
20260507031506 34 0 0.0 1.0 0.00 0.13 0.12 81 1018.8
20260507031005 34 0 0.0 2.0 0.00 0.13 0.12 81 1018.8
20260507030505 34 0 0.0 1.0 0.00 0.13 0.12 81 1018.8
20260507030005 35 0 0.0 0.0 0.00 0.13 0.12 81 1018.8
20260507025505 35 0 1.0 3.0 0.00 0.13 0.12 80 1018.8
20260507024506 35 0 0.0 0.0 0.00 0.13 0.12 79 1018.8
20260507023506 36 0 0.0 3.0 0.00 0.13 0.12 78 1018.7
20260507023006 36 0 0.0 3.0 0.01 0.13 0.12 78 1018.6
20260507022505 36 0 0.0 2.0 0.01 0.13 0.12 78 1018.7
20260507022005 37 0 0.0 1.0 0.01 0.13 0.12 77 1018.7
20260507021505 37 0 0.0 1.0 0.01 0.13 0.12 76 1018.7
20260507021006 37 0 0.0 2.0 0.01 0.13 0.12 76 1018.6
20260507020505 37 0 0.0 1.0 0.01 0.13 0.12 75 1018.6
20260507020005 38 0 0.0 2.0 0.01 0.13 0.12 75 1018.7
20260507015505 38 0 1.0 3.0 0.01 0.13 0.12 74 1018.7
20260507015006 38 0 1.0 3.0 0.02 0.13 0.12 73 1018.7
20260507014506 39 0 0.0 1.0 0.02 0.13 0.12 73 1018.7
20260507013505 39 0 1.0 5.0 0.02 0.13 0.12 71 1018.8
20260507012505 40 0 1.0 3.0 0.01 0.12 0.11 70 1018.9
20260507011505 40 0 1.0 3.0 0.01 0.12 0.11 70 1019.0
20260507011006 40 0 1.0 3.0 0.02 0.12 0.11 69 1019.1
20260507010505 41 0 1.0 6.0 0.02 0.12 0.11 70 1019.1